Location: Lobos
(35.3000°S, 59.0940°W)
Time: 05:50:00
(UTC-03:00)

STARLINK-1575 - Pass Details

Date: 21 September 2020
Orbit: 378 x 381 km, 53.0° (Epoch: 22 October)

Event Time Altitude Azimuth Distance (km) Brightness Sun altitude
Rises 20:26:38 0° 216° (SW) 2,281 7.6 -19.8°
Reaches altitude 10° 20:28:55 10° 203° (SSW) 1,421 6.2 -20.3°
Enters shadow 20:30:42 23° 174° (S) 894 4.8 -20.6°
